Weather History for Phoenix, AZ

Change the Weather History Date:

Tuesday, May 7, 2013

  Actual Average Record
Temperature  
Mean Temperature 76 °F 79 °F  
Max Temperature 85 °F 92 °F 108 °F (1989)
Min Temperature 67 °F 67 °F 45 °F (1896)
Degree Days  
Heating Degree Days 0 0  
Month to date heating degree days 0 0  
Since 1 July heating degree days 881 934  
Cooling Degree Days 11 14  
Month to date cooling degree days 111 95  
Year to date cooling degree days 615 450  
Growing Degree Days 25 (Base 50)    
Moisture  
Dew Point 39 °F    
Average Humidity 28    
Maximum Humidity 37    
Minimum Humidity 19    
Precipitation  
Precipitation 0.00 in 0.01 in 0.15 in (1927)
Month to date precipitation 0.00 0.03  
Year to date precipitation 2.61 3.13  
Snow  
Snow 0.00 in - - ()
Month to date snowfall 0.0  
Year to date snowfall 0.0  
Since 1 July snowfall 0.0  
Snow Depth 0.00 in    
Sea Level Pressure  
Sea Level Pressure 29.87 in    
Wind  
Wind Speed 10 mph (SSW)    
Max Wind Speed 25 mph    
Max Gust Speed 30 mph    
Visibility 10 miles    
Events      
T = Trace of Precipitation, MM = Missing Value Source: NWS Daily Summary

Daily Weather History Graph

Daily Weather History Graph

Search for Another Location

Airport:

Trip Planner

Search our weather history database for the weather conditions in past years. The results will help you decide how hot, cold, wet, or windy it might be!

Date:

Astronomy

May. 07, 2013 Rise Set
Actual Time 5:33 AM MST 7:15 PM MST
Civil Twilight 5:07 AM MST 7:42 PM MST
Nautical Twilight 4:34 AM MST 8:15 PM MST
Astronomical Twilight 4:00 AM MST 8:49 PM MST
Moon 4:03 AM MST (5/7) 5:23 PM MST (5/7)
Length of Visible Light 14h 35m
Length of Day
13h 41m
Waning Crescent, 5% of the Moon is Illuminated
May 7
Waning Crescent
May 9
New
May 17
First Quarter
May 24
Full
May 31
Last Quarter

Hourly Weather History & Observations

Time (MST) Temp. Dew Point Humidity Pressure Visibility Wind Dir Wind Speed Gust Speed Precip Events Conditions
12:51 AM 73.4 °F 42.8 °F 33% 29.90 in 10.0 mi SW 5.8 mph - N/A   Clear
1:51 AM 71.1 °F 39.0 °F 31% 29.86 in 10.0 mi SE 6.9 mph - N/A   Clear
2:51 AM 70.0 °F 37.9 °F 31% 29.87 in 10.0 mi ESE 3.5 mph - N/A   Clear
3:51 AM 68.0 °F 39.0 °F 35% 29.88 in 10.0 mi East 3.5 mph - N/A   Partly Cloudy
4:51 AM 68.0 °F 39.9 °F 36% 29.89 in 10.0 mi East 5.8 mph - N/A   Scattered Clouds
5:51 AM 66.9 °F 39.9 °F 37% 29.91 in 10.0 mi East 4.6 mph - N/A   Scattered Clouds
6:51 AM 68.0 °F 39.9 °F 36% 29.92 in 10.0 mi ENE 5.8 mph - N/A   Scattered Clouds
7:51 AM 71.1 °F 42.1 °F 35% 29.93 in 10.0 mi East 4.6 mph - N/A   Scattered Clouds
8:51 AM 73.4 °F 42.8 °F 33% 29.97 in 10.0 mi Variable 3.5 mph - N/A   Scattered Clouds
9:51 AM 78.1 °F 43.0 °F 29% 29.92 in 10.0 mi South 12.7 mph - N/A   Scattered Clouds
10:51 AM 81.0 °F 39.9 °F 23% 29.91 in 10.0 mi South 10.4 mph 20.7 mph N/A   Scattered Clouds
11:51 AM 81.0 °F 39.9 °F 23% 29.89 in 10.0 mi South 13.8 mph - N/A   Scattered Clouds
12:51 PM 82.9 °F 39.9 °F 22% 29.86 in 10.0 mi South 10.4 mph 21.9 mph N/A   Scattered Clouds
1:51 PM 84.0 °F 37.9 °F 19% 29.84 in 10.0 mi South 13.8 mph 23.0 mph N/A   Scattered Clouds
2:51 PM 82.9 °F 39.0 °F 21% 29.82 in 10.0 mi SW 6.9 mph - N/A   Scattered Clouds
3:51 PM 84.0 °F 39.0 °F 20% 29.80 in 10.0 mi WSW 12.7 mph 19.6 mph N/A   Scattered Clouds
4:51 PM 82.0 °F 39.0 °F 22% 29.80 in 10.0 mi West 13.8 mph 26.5 mph N/A   Scattered Clouds
5:20 PM 82.4 °F 37.4 °F 20% 29.83 in 10.0 mi West 13.8 mph 27.6 mph N/A   Scattered Clouds
5:51 PM 81.0 °F 37.0 °F 21% 29.80 in 10.0 mi West 23.0 mph 28.8 mph N/A   Scattered Clouds
6:51 PM 79.0 °F 37.9 °F 23% 29.80 in 10.0 mi West 23.0 mph - N/A   Scattered Clouds
7:51 PM 77.0 °F 37.9 °F 24% 29.82 in 10.0 mi WNW 19.6 mph 28.8 mph N/A   Scattered Clouds
8:51 PM 75.9 °F 35.1 °F 23% 29.84 in 10.0 mi West 18.4 mph - N/A   Scattered Clouds
9:51 PM 75.0 °F 35.1 °F 23% 29.87 in 10.0 mi West 15.0 mph - N/A   Scattered Clouds
10:51 PM 72.0 °F 37.0 °F 28% 29.88 in 10.0 mi WSW 5.8 mph - N/A   Partly Cloudy
11:51 PM 73.0 °F 36.0 °F 26% 29.89 in 10.0 mi NW 4.6 mph - N/A   Partly Cloudy